Weather in Guantanamo

Cuba     20˚08′11″N   75˚12′47″W
temp.,
°C
wind,
m/s
gust,
m/s
humid.,
%
clouds,
%
prec.,
mm/h
press.,
hPa
HPBL,
m
27 november, fri
fri2701:00+19˚n129512 0.0 101426
04:00+19˚n129511 0.0 101424
07:00+20˚n22947 0.0 101535
10:00+26˚ne24712 0.0 1017955
13:00+28˚ene336827 0.3 10141197
16:00+26˚ene247842 0.6 1013778
19:00+21˚n239323 0.8 101480
22:00+20˚n239726 0.0 101588
28 november, sat
sat2801:00+20˚n129638 0.0 101367
04:00+20˚n229533 0.0 101357
07:00+20˚nne229425 0.1 101556
10:00+25˚nne127538 0.2 1016625
13:00+25˚sw018448 1.4 1014475
16:00+25˚nnw128897 1.8 1013288
19:00+21˚nne229465 2.6 101557
22:00+20˚n129624 0.1 101543
29 november, sun
sun2901:00+21˚nne119542 0.1 101532
04:00+20˚nne129435 0.1 101424
07:00+20˚nne129426 0.1 101631
10:00+25˚e25711 0.0 1017870
13:00+28˚ese23572 0.0 10141479
16:00+26˚sse237319 0.1 1013626
19:00+20˚nne22899 0.1 101531
22:00+18˚nne12930 0.0 101626
30 november, mon
mon3001:00+18˚nne12930 0.0 101624
04:00+17˚nne12920 0.0 101524
07:00+18˚nne12890 0.0 101625
10:00+26˚ese01600 0.0 1016578
13:00+28˚ssw11490 0.0 1014995
16:00+26˚sse12640 0.0 1012331
19:00+20˚nw11930 0.0 101423
22:00+19˚nne12940 0.0 101523
1 december, tue
tue101:00+18˚nne11940 0.0 101423
04:00+18˚nne119385 0.0 101323
07:00+18˚nne119065 0.0 101524
10:00+25˚nnw1262100 0.0 1015626
13:00+27˚sw1249100 0.0 10131135
16:00+25˚n247199 0.0 1012459
19:00+20˚n229262 0.1 101451
22:00+19˚nne229532 0.1 101550